Desert Rock Airport
KDRA : now visible

Airfield :











YOU CAN JOIN US ON...

 
LOGIN :

Register | Disclaimer

   EN    FR    IT 

 









Legend :    VFR   Marginal VFR   IFR   Intensive IFR   Very Intensive IFR
Visi :
Ceiling :
>= 8 km
>= 3000ft
5 to 8 km
1000 to 3000 ft
1500m to 5 km
500 to 1000 ft
800 to 1500m
200 to 500 ft
< 800m
< 200 ft
Symbols :   Thunderstorms  Fog  Heavy snow  Heavy precipitations  Wind > 20 kt






- Airport Elevation : 3314 ft


KDRA - Desert Rock

CURRENT METAR :
  • 211953Z AUTO 21010KT 10SM CLR 21/M06 A2969 RMK AO2 SLP014 T02111061

EXPIRED METARs :
  • 211853Z AUTO 22015G24KT 10SM CLR 21/M08 A2970 RMK AO2 PK WND 22028/1755 SLP016 T02111083
  • 211753Z AUTO 23017G26KT 10SM CLR 20/M07 A2969 RMK AO2 PK WND 24032/1656 SLP011 T02001067 10200 20156 53009

Expired Forecast.



MET'MAP, your aeronautical weather chart ! - Copyright ORBIFLY December 2007 - Disclaimer

ORBIFLY MET'MAP TEAM :

Programming & Development : Alexandra Zaïnal
Concept & original design : Baudouin d'Aumeries
Assistance for programming : Marc-Olivier Méhu
Technical & hardware support : Manuel Goepfert

Contact : metmap@orbifly.com




SOURCES & CREDITS :

   NOAA       Earth
Advisory